[[{"header":{"parameterUnit":"m.s-1","parameterCategory":1,"la1":30.2991,"la2":30.254,"lo1":-89.0895,"lo2":-89.0444,"dy":0.0017,"dx":0.0017,"nx":28,"ny":28,"refTime":"2024-03-31T21:00:00:Z","depth":0,"parameterNumber":2,"parameterNumberName":"U-component_of_WINDS"},"data":[0,0,0,0,0,0,0,0,0,0,0,0,0,0,0,0,0,0,0,0,0,0,0,0,0,0,0,0,0,0,0,0,0,0,0,0,0,0,0,0,0,0,0,0,0,0,0,0,0,0,0,0,0,0,0,0,0,0,-1.0116,-1.0116,0,-1.0116,-1.0116,-1.0116,-1.0097,-1.0097,-1.0096,-1.0096,-1.0095,-1.0096,-1.0096,0,0,0,0,0,0,0,0,0,0,0,0,0,-1.0099,-1.01,-1.0116,-1.0116,-1.0116,-1.0116,-1.0116,-1.0116,-1.0097,-1.0097,-1.0096,-1.0095,-1.0095,-1.0096,-1.0096,0,0,0,0,0,0,0,0,0,0,0,0,0,-1.0104,-1.01,-1.0116,-1.0106,-1.0106,-1.0116,-1.0116,-1.0116,-1.0097,-1.0097,-1.0096,-1.0095,-1.0095,-1.0096,-1.0096,-1.0116,0,0,-1.0098,-1.0099,0,0,0,0,0,0,0,0,-1.0104,-1.0104,-1.0108,-1.0107,-1.0106,-1.0106,-1.011,-1.0116,-1.0097,-1.01,-1.0096,-1.0095,-1.0099,-1.01,-1.0101,-1.0116,-1.0116,-1.0099,-1.0099,-1.0099,-1.0099,0,0,0,0,0,0,0,-1.0103,-1.0104,-1.0116,-1.0108,-1.0107,-1.0102,-1.0102,-1.0111,-1.0104,-1.01,-1.0099,-1.0099,-1.0099,-1.0101,-1.0101,-1.0116,-1.0098,-1.0099,-1.01,-1.01,-1.0148,-1.0148,0,0,0,0,0,0,-1.0104,-1.0104,-1.0116,-1.0116,-1.0103,-1.0103,-1.0103,-1.0107,-1.0104,-1.0103,-1.01,-1.0098,-1.01,-1.01,-1.0101,-1.0124,-1.0099,-1.01,-1.01,-1.0147,-1.0148,-1.0149,0,0,0,0,0,0,-1.0104,-1.0106,-1.0116,-1.011,-1.0111,-1.0104,-1.0109,-1.0107,-1.0109,-1.0104,-1.0102,-1.0103,-1.0099,-1.01,-1.0113,-1.0124,-1.01,-1.0101,-1.0146,-1.0147,-1.0148,-1.0171,0,0,0,0,0,0,-1.0104,-1.0106,-1.0113,-1.011,-1.0111,-1.0127,-1.0109,-1.0108,-1.011,-1.0108,-1.0106,-1.0105,-1.0099,-1.0112,-1.0113,-1.0125,-1.0101,-1.0145,-1.0146,-1.0148,-1.0169,-1.0172,-1.0176,0,0,0,0,0,-1.0103,-1.0119,-1.0113,-1.0115,-1.012,-1.0128,-1.0129,-1.0121,-1.0111,-1.0119,-1.0116,-1.0105,-1.0123,-1.0113,-1.0115,-1.0126,-1.0144,-1.0146,-1.0148,-1.0167,-1.0172,-1.0175,0,0,0,0,0,0,-1.0122,-1.0118,-1.0112,-1.0127,-1.0128,-1.0125,-1.0134,-1.0126,-1.013,-1.0127,-1.0118,-1.0117,-1.0132,-1.013,-1.012,-1.0146,-1.0132,-1.0134,-1.0146,-1.015,-1.0153,-1.0153,-1.0102,0,0,0,0,0,-1.0128,-1.0135,-1.0131,-1.0145,-1.0146,-1.014,-1.0143,-1.0137,-1.0138,-1.0138,-1.0136,-1.0137,-1.0143,-1.0146,-1.0151,-1.0169,-1.0168,-1.0178,-1.0181,-1.0184,-1.0186,-1.0196,-1.02,-1.0155,-1.0155,-1.0155,0,0,-1.014,-1.0139,-1.0144,-1.0149,-1.0149,-1.0156,-1.014,-1.0149,-1.0154,-1.0139,-1.0151,-1.015,-1.015,-1.0166,-1.0172,-1.0165,-1.0199,-1.0187,-1.0189,-1.0189,-1.0198,-1.0203,-1.0206,-1.0156,-1.0156,-1.0156,0,0,-1.0166,-1.0166,-1.0178,-1.0178,-1.0179,-1.0176,-1.0179,-1.0177,-1.0175,-1.0187,-1.0177,-1.0183,-1.0193,-1.0194,-1.0196,-1.0225,-1.0216,-1.0227,-1.0244,-1.0254,-1.0258,-1.0261,-1.0271,-1.0275,-1.0229,-1.0229,-1.0229,0,-1.0181,-1.0192,-1.0184,-1.0194,-1.0197,-1.0185,-1.0197,-1.0198,-1.02,-1.0202,-1.0195,-1.0208,-1.0207,-1.0223,-1.023,-1.0232,-1.0235,-1.0226,-1.0258,-1.0261,-1.0264,-1.0273,-1.0277,-1.023,-1.023,-1.023,-1.023,0,-1.021,-1.0218,-1.0228,-1.0231,-1.0235,-1.0246,-1.024,-1.0245,-1.024,-1.0237,-1.025,-1.0249,-1.0254,-1.0258,-1.0252,-1.0273,-1.0268,-1.0259,-1.0245,-1.0269,-1.0278,-1.0282,-1.0232,-1.0232,-1.0231,-1.0231,0,0,-1.0246,-1.0247,-1.025,-1.0252,-1.0253,-1.0259,-1.027,-1.0275,-1.028,-1.0282,-1.0291,-1.0301,-1.0293,-1.0295,-1.029,-1.0299,-1.0322,-1.0288,-1.0288,-1.0294,-1.0345,-1.0351,-1.0356,-1.0316,-1.0317,-1.0317,-1.0345,0,-1.0272,-1.029,-1.0284,-1.0302,-1.031,-1.03,-1.0309,-1.0311,-1.0309,-1.0315,-1.0314,-1.0321,-1.0309,-1.0311,-1.0319,-1.0317,-1.0332,-1.0315,-1.0324,-1.0325,-1.0324,-1.036,-1.0367,-1.0393,-1.0348,-1.0349,-1.0349,0,-1.0303,-1.0307,-1.0327,-1.0327,-1.033,-1.0339,-1.0344,-1.035,-1.0353,-1.0351,-1.0354,-1.0348,-1.0359,-1.0345,-1.036,-1.0349,-1.0353,-1.0353,-1.0353,-1.0353,-1.0338,-1.0361,-1.0401,-1.0405,-1.0355,-1.0354,-1.0354,0,-1.0327,-1.0338,-1.0351,-1.0353,-1.0354,-1.0361,-1.0362,-1.0363,-1.0367,-1.0372,-1.0375,-1.038,-1.0383,-1.0388,-1.0384,-1.0374,-1.04,-1.0386,-1.0398,-1.0399,-1.0403,-1.0403,-1.0444,-1.0407,-1.0407,-1.0407,-1.0407,0,-1.0356,-1.0368,-1.0363,-1.037,-1.0384,-1.0378,-1.0392,-1.0392,-1.0393,-1.0401,-1.0393,-1.0401,-1.0394,-1.0402,-1.0398,-1.0412,-1.0413,-1.0412,-1.0411,-1.0412,-1.0412,-1.0414,-1.0412,-1.0408,-1.0408,-1.0407,-1.0407,0,-1.0384,-1.0382,-1.0395,-1.0396,-1.0396,-1.0406,-1.0407,-1.0414,-1.0413,-1.0423,-1.0425,-1.0423,-1.0431,-1.0427,-1.0436,-1.0433,-1.045,-1.0447,-1.045,-1.0449,-1.0462,-1.046,-1.0504,-1.051,-1.047,-1.047,-1.0471,0,-1.0402,-1.0412,-1.0414,-1.0419,-1.042,-1.0428,-1.0432,-1.0428,-1.0432,-1.0437,-1.0444,-1.0452,-1.0457,-1.0471,-1.047,-1.0477,-1.0474,-1.0489,-1.0474,-1.0476,-1.0473,-1.0473,-1.0474,-1.0491,-1.0492,-1.0492,-1.0492,0,-1.0434,-1.0433,-1.0439,-1.0446,-1.0452,-1.0457,-1.0461,-1.0465,-1.0461,-1.0467,-1.0475,-1.048,-1.049,-1.0497,-1.0504,-1.0505,-1.0498,-1.0497,-1.05,-1.0502,-1.0503,-1.0502,-1.0457,-1.0496,-1.0495,-1.0495,-1.0495,-1.0495,-1.0458,-1.0466,-1.0469,-1.0477,-1.048,-1.0484,-1.0492,-1.0492,-1.0499,-1.0506,-1.0503,-1.0513,-1.0517,-1.0524,-1.0527,-1.0535,-1.0529,-1.0534,-1.0535,-1.0536,-1.0537,-1.0502,-1.0536,-1.0536,-1.0536,-1.0536,-1.0536,0,-1.049,-1.0491,-1.0499,-1.0505,-1.0512,-1.0506,-1.051,-1.0516,-1.0525,-1.0529,-1.0536,-1.0546,-1.0554,-1.0554,-1.0562,-1.0568,-1.0565,-1.057,-1.057,-1.057,-1.0542,-1.0539,-1.0573,-1.0573,-1.0573,-1.0573,-1.0573,-1.0573,-1.0507,-1.052,-1.0519,-1.0534,-1.0536,-1.0546,-1.055,-1.0554,-1.0557,-1.0569,-1.0576,-1.0576,-1.0579,-1.0587,-1.0594,-1.0594,-1.0597,-1.0603,-1.0602,-1.0576,-1.0572,-1.0568,-1.0565,-1.0604,-1.0604,-1.0629,-1.0629,-1.0629]},{"header":{"parameterUnit":"m.s-1","parameterCategory":1,"la1":30.2991,"la2":30.254,"lo1":-89.0895,"lo2":-89.0444,"dy":0.0017,"dx":0.0017,"nx":28,"ny":28,"refTime":"2024-03-31T21:00:00:Z","depth":0,"parameterNumber":3,"parameterNumberName":"V-component_of_WINDS"},"data":[0,0,0,0,0,0,0,0,0,0,0,0,0,0,0,0,0,0,0,0,0,0,0,0,0,0,0,0,0,0,0,0,0,0,0,0,0,0,0,0,0,0,0,0,0,0,0,0,0,0,0,0,0,0,0,0,0,0,4.0367,4.0368,0,4.0442,4.0443,4.0444,4.0425,4.0424,4.0422,4.0421,4.0499,4.0502,4.0505,0,0,0,0,0,0,0,0,0,0,0,0,0,4.0208,4.0211,4.0367,4.0368,4.0369,4.0442,4.0443,4.0444,4.0425,4.0423,4.0422,4.042,4.0497,4.0501,4.0506,0,0,0,0,0,0,0,0,0,0,0,0,0,4.028,4.0212,4.0367,4.0368,4.0369,4.0442,4.0443,4.0445,4.0426,4.0423,4.0421,4.0419,4.0496,4.0501,4.0506,4.0583,0,0,4.0522,4.0524,0,0,0,0,0,0,0,0,4.0276,4.0286,4.0367,4.0368,4.0369,4.0422,4.0416,4.0491,4.0426,4.0404,4.0421,4.0418,4.0475,4.0482,4.0501,4.0586,4.059,4.0523,4.0526,4.0528,4.0529,0,0,0,0,0,0,0,4.0271,4.0282,4.0397,4.0368,4.037,4.0366,4.0373,4.043,4.0451,4.0406,4.0405,4.0414,4.0475,4.0496,4.0502,4.0591,4.0522,4.0527,4.053,4.0532,4.0747,4.0749,0,0,0,0,0,0,4.0265,4.0278,4.0394,4.0399,4.0316,4.037,4.0379,4.0407,4.045,4.0455,4.0416,4.0413,4.0488,4.0496,4.0505,4.0601,4.0528,4.0533,4.0536,4.0744,4.0747,4.075,0,0,0,0,0,0,4.0261,4.0275,4.0391,4.0338,4.0353,4.0375,4.0407,4.041,4.0431,4.0458,4.0462,4.0433,4.0487,4.0498,4.0564,4.0603,4.0535,4.054,4.0741,4.0745,4.0749,4.079,0,0,0,0,0,0,4.0257,4.0274,4.0303,4.0339,4.0356,4.0449,4.041,4.0413,4.044,4.0436,4.0475,4.0479,4.0486,4.0557,4.057,4.0609,4.0544,4.0738,4.0743,4.0747,4.0786,4.0795,4.0803,0,0,0,0,0,4.0251,4.0311,4.0304,4.0319,4.0392,4.0451,4.0461,4.0467,4.0443,4.0473,4.049,4.0478,4.0596,4.0564,4.0578,4.0619,4.0735,4.0741,4.0747,4.0782,4.0793,4.0803,0,0,0,0,0,0,4.0278,4.0316,4.0309,4.0382,4.0414,4.0448,4.0485,4.0478,4.0517,4.0513,4.0519,4.0528,4.0597,4.0614,4.0577,4.0697,4.0662,4.0671,4.0684,4.0695,4.0704,4.0699,4.0548,0,0,0,0,0,4.0292,4.0337,4.0367,4.0429,4.0445,4.0463,4.0488,4.049,4.0524,4.0537,4.0559,4.0592,4.0637,4.0666,4.0709,4.0787,4.0797,4.0823,4.0832,4.0839,4.0847,4.0893,4.0906,4.0769,4.0769,4.0769,0,0,4.0323,4.0349,4.0376,4.0435,4.046,4.0507,4.0474,4.0524,4.056,4.0544,4.061,4.0627,4.0665,4.0738,4.0772,4.0755,4.0887,4.0846,4.0852,4.0856,4.0901,4.0914,4.0925,4.0773,4.0772,4.0772,0,0,4.0403,4.0425,4.0481,4.0507,4.0545,4.0557,4.057,4.0606,4.0617,4.0683,4.0673,4.0715,4.0791,4.082,4.0844,4.0937,4.0928,4.095,4.0997,4.1042,4.1053,4.1063,4.1099,4.1112,4.0958,4.0958,4.0958,0,4.0436,4.0506,4.051,4.0563,4.059,4.0578,4.0636,4.0661,4.0711,4.073,4.0711,4.0808,4.0832,4.0914,4.0937,4.0956,4.0973,4.0947,4.1051,4.1061,4.107,4.1105,4.1118,4.0961,4.096,4.096,4.096,0,4.0546,4.0595,4.0635,4.0685,4.0717,4.0771,4.0785,4.0816,4.0816,4.083,4.0898,4.0927,4.0976,4.0995,4.0995,4.1078,4.1067,4.1049,4.1014,4.1085,4.1119,4.1132,4.0965,4.0964,4.0963,4.0962,0,0,4.0646,4.0698,4.0714,4.0738,4.078,4.0818,4.0872,4.0921,4.095,4.0985,4.1033,4.1098,4.1083,4.111,4.1113,4.1152,4.1228,4.1129,4.113,4.115,4.1325,4.1341,4.1356,4.1221,4.1224,4.1226,4.1323,0,4.0732,4.0829,4.0835,4.0923,4.097,4.0961,4.1009,4.104,4.1055,4.1098,4.1114,4.1162,4.1136,4.1153,4.1191,4.121,4.1264,4.1203,4.1268,4.1271,4.1263,4.1373,4.1389,4.148,4.1336,4.1338,4.134,0,4.0845,4.0886,4.0979,4.1017,4.1037,4.108,4.1127,4.1167,4.1203,4.1212,4.1243,4.1241,4.1299,4.1261,4.1342,4.1301,4.1328,4.1342,4.1345,4.1354,4.1312,4.1388,4.1509,4.1524,4.1359,4.1358,4.1356,0,4.0913,4.099,4.1056,4.1076,4.1122,4.1153,4.1173,4.1207,4.1237,4.1278,4.1298,4.1345,4.1371,4.1408,4.1419,4.139,4.1502,4.1464,4.1513,4.1513,4.1539,4.1538,4.1669,4.1551,4.1551,4.155,4.155,0,4.101,4.1069,4.1088,4.1129,4.1195,4.1202,4.1267,4.1285,4.1316,4.1362,4.1355,4.1399,4.1409,4.1455,4.1464,4.1532,4.1543,4.1553,4.1556,4.1556,4.1555,4.1576,4.1571,4.1554,4.1553,4.1552,4.1552,0,4.1098,4.1113,4.1185,4.1223,4.1234,4.1281,4.1313,4.1354,4.1368,4.1426,4.144,4.1463,4.1517,4.1531,4.1594,4.1601,4.1682,4.1677,4.1671,4.1671,4.1721,4.1718,4.1873,4.1896,4.1759,4.176,4.1761,0,4.1161,4.1206,4.1248,4.1279,4.1301,4.1349,4.1381,4.1389,4.1422,4.1469,4.1504,4.1557,4.16,4.1687,4.171,4.176,4.1757,4.1808,4.1765,4.1765,4.1763,4.1761,4.1768,4.1818,4.1819,4.182,4.1821,0,4.1272,4.1277,4.1322,4.1371,4.1408,4.1447,4.1483,4.1509,4.1523,4.156,4.1616,4.1649,4.1716,4.177,4.182,4.1842,4.1836,4.1834,4.1849,4.1852,4.1848,4.1855,4.1697,4.1832,4.1831,4.183,4.1829,4.1829,4.1351,4.1392,4.143,4.1481,4.1509,4.1545,4.1586,4.1605,4.1652,4.1707,4.1709,4.177,4.1808,4.1875,4.19,4.1949,4.1934,4.1954,4.196,4.1966,4.1972,4.1837,4.1957,4.1957,4.1957,4.1957,4.1956,0,4.1465,4.1489,4.1536,4.1589,4.163,4.1619,4.1659,4.1695,4.1749,4.1784,4.1827,4.1893,4.1945,4.1973,4.2025,4.206,4.2058,4.2074,4.2073,4.2079,4.198,4.1964,4.2074,4.2074,4.2074,4.2074,4.2074,4.2074,4.1529,4.1599,4.161,4.1694,4.1718,4.1778,4.1803,4.1836,4.1865,4.1938,4.1982,4.2,4.2033,4.2088,4.2137,4.2144,4.2165,4.2183,4.2189,4.2097,4.2085,4.2074,4.2059,4.2187,4.2187,4.2284,4.2285,4.2285]}]]